Погода в Хинганске

Россия / Еврейская автономная область     49°07′31″N   131°11′50″E
темп.,
°C
ветер,
м/с
пор.,
м/с
влажн.,
%
обл.,
%
осадки,
мм/ч
давл.,
гПа
погр.,
м
17 мая, пн
пн1701:00+8ю22540 0.0 100212
04:00+7ююв22580 0.0 100128
07:00+9ююв24570 0.0 100080
10:00+16ююз35352 0.0 999659
13:00+20з48285 0.0 9992233
16:00+20зсз5931100 0.0 9992699
19:00+18сз344612 0.0 9991397
22:00+10всв11725 0.0 100110
18 мая, вт
вт1801:00+10юв337038 0.0 100046
04:00+10ююв3473100 0.0 99978
07:00+13ююз41355100 0.0 998829
10:00+15юз41152100 0.0 998865
13:00+20юз5837100 0.0 9981374
16:00+19сз6643100 0.0 9981797
19:00+14ссз4107291 0.3 1000868
22:00+9сз2494100 0.6 1002140
19 мая, ср
ср1901:00+9ссз119999 0.8 100326
04:00+7св2297100 0.8 100328
07:00+8юв2292100 0.0 100483
10:00+13ююз2564100 0.0 1002459
13:00+16зюз5754100 0.2 10021349
16:00+17з51037100 0.3 10022576
19:00+15ссз46425 0.0 10041138
22:00+7св396839 0.0 1008204
20 мая, чт
чт2001:00+6в2257100 0.0 100825
04:00+7юв3451100 0.0 100683
07:00+10ююв616517 0.0 1003600
10:00+9юв2475100 1.6 1005214
13:00+19ю4748100 0.8 10031085
16:00+22юз3844100 0.8 10022036
19:00+16юв2388100 1.3 1002204
22:00+12ссз1196100 3.1 100511
21 мая, пт
пт2101:00+11ююв1196100 0.9 100613
04:00+10ююв009771 1.8 100710
07:00+11ссв24955 0.0 1007116
10:00+18всв12600 0.0 1006537
13:00+24юв22374 0.0 10051922
16:00+25ююв353926 0.0 10042260
19:00+22юв47560 0.0 1004885
22:00+16юв412810 0.0 1005339